TimeCDT,TemperatureF,Dew PointF,Humidity,Sea Level PressureIn,VisibilityMPH,Wind Direction,Wind SpeedMPH,Gust SpeedMPH,PrecipitationIn,Events,Conditions,WindDirDegrees,DateUTC
12:15 AM,30.2,28.4,93,30.25,10.0,Calm,Calm,-,N/A,,Clear,0,2011-11-04 05:15:00
12:35 AM,32.0,28.4,87,30.25,10.0,Calm,Calm,-,N/A,,Clear,0,2011-11-04 05:35:00
12:55 AM,32.0,28.4,87,30.23,10.0,East,4.6,-,N/A,,Clear,100,2011-11-04 05:55:00
1:15 AM,32.0,30.2,93,30.24,10.0,Calm,Calm,-,N/A,,Clear,0,2011-11-04 06:15:00
1:35 AM,32.0,30.2,93,30.23,10.0,East,3.5,-,N/A,,Clear,100,2011-11-04 06:35:00
1:55 AM,32.0,28.4,87,30.23,10.0,Calm,Calm,-,N/A,,Clear,0,2011-11-04 06:55:00
2:15 AM,32.0,28.4,87,30.24,10.0,Calm,Calm,-,N/A,,Clear,0,2011-11-04 07:15:00
2:35 AM,32.0,28.4,87,30.24,10.0,SE,4.6,-,N/A,,Clear,130,2011-11-04 07:35:00
2:55 AM,30.2,26.6,86,30.24,10.0,SE,4.6,-,N/A,,Clear,140,2011-11-04 07:55:00
3:15 AM,30.2,26.6,86,30.24,10.0,SSE,4.6,-,N/A,,Clear,150,2011-11-04 08:15:00
3:35 AM,32.0,28.4,87,30.24,10.0,Calm,Calm,-,N/A,,Clear,0,2011-11-04 08:35:00
4:15 AM,30.2,26.6,86,30.23,10.0,Calm,Calm,-,N/A,,Clear,0,2011-11-04 09:15:00
4:35 AM,26.6,23.0,86,30.23,10.0,Calm,Calm,-,N/A,,Clear,0,2011-11-04 09:35:00
4:55 AM,32.0,26.6,80,30.23,10.0,Calm,Calm,-,N/A,,Clear,0,2011-11-04 09:55:00
5:15 AM,32.0,26.6,80,30.22,10.0,SE,4.6,-,N/A,,Clear,130,2011-11-04 10:15:00
5:35 AM,32.0,28.4,87,30.21,10.0,ESE,5.8,-,N/A,,Clear,110,2011-11-04 10:35:00
5:55 AM,32.0,28.4,87,30.21,10.0,SE,3.5,-,N/A,,Clear,130,2011-11-04 10:55:00
6:15 AM,32.0,28.4,87,30.21,10.0,ESE,5.8,-,N/A,,Clear,110,2011-11-04 11:15:00
6:35 AM,30.2,28.4,93,30.21,10.0,ESE,4.6,-,N/A,,Clear,120,2011-11-04 11:35:00
7:15 AM,32.0,28.4,87,30.21,10.0,Calm,Calm,-,N/A,,Clear,0,2011-11-04 12:15:00
7:35 AM,32.0,28.4,87,30.20,10.0,Calm,Calm,-,N/A,,Clear,0,2011-11-04 12:35:00
7:55 AM,30.2,28.4,93,30.21,10.0,SE,4.6,-,N/A,,Clear,130,2011-11-04 12:55:00
8:15 AM,32.0,28.4,87,30.21,10.0,SE,5.8,-,N/A,,Clear,140,2011-11-04 13:15:00
8:35 AM,32.0,30.2,93,30.21,10.0,SSE,6.9,-,N/A,,Clear,160,2011-11-04 13:35:00
8:55 AM,33.8,30.2,87,30.21,10.0,SSE,8.1,-,N/A,,Clear,150,2011-11-04 13:55:00
9:15 AM,33.8,30.2,87,30.22,10.0,SSE,8.1,-,N/A,,Clear,150,2011-11-04 14:15:00
9:35 AM,35.6,32.0,87,30.22,10.0,SSE,9.2,-,N/A,,Clear,150,2011-11-04 14:35:00
9:55 AM,37.4,32.0,81,30.22,10.0,SE,9.2,-,N/A,,Clear,140,2011-11-04 14:55:00
10:35 AM,41.0,32.0,70,30.21,10.0,SE,13.8,17.3,N/A,,Clear,140,2011-11-04 15:35:00
10:55 AM,42.8,32.0,66,30.20,10.0,SSE,13.8,18.4,N/A,,Clear,150,2011-11-04 15:55:00
11:15 AM,42.8,32.0,66,30.20,10.0,SSE,17.3,21.9,N/A,,Clear,150,2011-11-04 16:15:00
11:35 AM,44.6,32.0,61,30.20,10.0,SSE,13.8,20.7,N/A,,Clear,160,2011-11-04 16:35:00
11:55 AM,46.4,32.0,57,30.19,10.0,SSE,13.8,-,N/A,,Clear,150,2011-11-04 16:55:00
12:15 PM,48.2,32.0,54,30.18,10.0,SSE,17.3,-,N/A,,Clear,150,2011-11-04 17:15:00
12:35 PM,50.0,30.2,47,30.16,10.0,SSE,19.6,-,N/A,,Clear,150,2011-11-04 17:35:00
12:55 PM,50.0,30.2,47,30.16,10.0,SSE,17.3,20.7,N/A,,Clear,150,2011-11-04 17:55:00
1:15 PM,50.0,30.2,47,30.15,10.0,South,16.1,21.9,N/A,,Clear,170,2011-11-04 18:15:00
1:35 PM,51.8,32.0,47,30.13,10.0,SSE,13.8,20.7,N/A,,Clear,150,2011-11-04 18:35:00
1:55 PM,51.8,32.0,47,30.12,10.0,SE,12.7,25.3,N/A,,Clear,140,2011-11-04 18:55:00
2:35 PM,51.8,32.0,47,30.08,10.0,SSE,15.0,21.9,N/A,,Clear,150,2011-11-04 19:35:00
2:55 PM,51.8,32.0,47,30.08,10.0,SE,18.4,23.0,N/A,,Clear,140,2011-11-04 19:55:00
3:15 PM,53.6,32.0,44,30.07,10.0,SSE,18.4,-,N/A,,Clear,150,2011-11-04 20:15:00
3:35 PM,53.6,32.0,44,30.06,10.0,SSE,17.3,27.6,N/A,,Clear,150,2011-11-04 20:35:00
3:55 PM,53.6,32.0,44,30.05,10.0,SE,18.4,26.5,N/A,,Clear,140,2011-11-04 20:55:00
4:35 PM,53.6,33.8,47,30.04,10.0,SSE,17.3,21.9,N/A,,Clear,150,2011-11-04 21:35:00
4:55 PM,53.6,33.8,47,30.03,10.0,SE,13.8,-,N/A,,Clear,140,2011-11-04 21:55:00
5:15 PM,51.8,33.8,50,30.02,10.0,SE,12.7,16.1,N/A,,Clear,140,2011-11-04 22:15:00
5:35 PM,51.8,33.8,50,30.02,10.0,SE,12.7,19.6,N/A,,Clear,140,2011-11-04 22:35:00
5:55 PM,51.8,33.8,50,30.02,10.0,ESE,11.5,-,N/A,,Clear,120,2011-11-04 22:55:00
6:15 PM,50.0,35.6,58,30.02,10.0,ESE,10.4,-,N/A,,Clear,120,2011-11-04 23:15:00
6:35 PM,48.2,33.8,58,30.01,10.0,SE,12.7,-,N/A,,Clear,130,2011-11-04 23:35:00
6:55 PM,46.4,33.8,62,30.01,10.0,SE,10.4,-,N/A,,Clear,130,2011-11-04 23:55:00
7:15 PM,46.4,33.8,62,30.01,10.0,ESE,10.4,-,N/A,,Clear,120,2011-11-05 00:15:00
7:35 PM,46.4,32.0,57,30.01,10.0,SE,12.7,-,N/A,,Clear,130,2011-11-05 00:35:00
7:55 PM,46.4,32.0,57,30.01,10.0,SE,11.5,16.1,N/A,,Clear,130,2011-11-05 00:55:00
8:15 PM,46.4,32.0,57,30.00,10.0,SE,13.8,-,N/A,,Clear,130,2011-11-05 01:15:00
8:35 PM,46.4,32.0,57,30.00,10.0,SE,12.7,18.4,N/A,,Clear,140,2011-11-05 01:35:00
8:55 PM,46.4,32.0,57,30.00,10.0,SE,11.5,-,N/A,,Clear,130,2011-11-05 01:55:00
9:15 PM,46.4,32.0,57,30.00,10.0,SE,12.7,-,N/A,,Clear,130,2011-11-05 02:15:00
9:35 PM,44.6,33.8,66,30.00,10.0,SE,12.7,17.3,N/A,,Clear,130,2011-11-05 02:35:00
9:55 PM,44.6,33.8,66,30.00,10.0,SE,13.8,-,N/A,,Clear,140,2011-11-05 02:55:00
10:15 PM,44.6,33.8,66,30.00,10.0,SE,12.7,18.4,N/A,,Clear,140,2011-11-05 03:15:00
10:35 PM,44.6,33.8,66,30.00,10.0,SE,11.5,-,N/A,,Clear,130,2011-11-05 03:35:00
10:55 PM,44.6,33.8,66,29.99,10.0,SE,11.5,-,N/A,,Clear,140,2011-11-05 03:55:00
11:15 PM,44.6,35.6,71,29.99,10.0,SE,12.7,18.4,N/A,,Clear,140,2011-11-05 04:15:00
11:35 PM,44.6,35.6,71,29.98,10.0,SE,12.7,19.6,N/A,,Clear,140,2011-11-05 04:35:00
11:55 PM,44.6,37.4,76,29.98,10.0,SSE,13.8,19.6,N/A,,Clear,150,2011-11-05 04:55:00